Starlink 3296

operational
NORAD ID: 50168 Int'l Des: 2021-125 Owner: SPXS Country: US Constellation: starlink
LEOCIRCULAR

Starlink 3296について

説明を読み込み中...

リアルタイム位置

3D地球を読み込み中...

次回通過

高度履歴

Altitude vs Time

uPlot chart will show altitude changes over time

軌道要素

1 50168U 21125N 25352.66667824 .01324911 00000-0 72212-2 0 9990
2 50168 53.2164 244.3880 0000908 109.1421 65.9666 15.76744915 5740
Epoch: Dec 18, 2025 • Age: 7 hours

現在のステータス

高度 338.0 km
速度 7.71 km/s
衛星直下点 24.24°N, 36.98°W
打ち上げ日 Dec 18, 2021
運用期間 4 years
タイプ internet

技術仕様

分類 Payload
質量 290.00 kg
乾燥質量 270.00 kg
総質量 290.00 kg
長さ 0.20 m
直径 2.80 m
スパン 9.00 m
形状 Box + pan
製造者 SPXS
バスタイプ Starlink
フェーズステータス In Orbit
所有者/国 SPXS/US

大規模コンステレーション

Loading constellations...